owner,sensor,date,latitude,longitude,sea_surface_height_above_sea_level,qcFlag 
DISL,ioos:station:DISL:MHPA:1,2017-12-01T00:30:00Z,30.6671,-87.9365,1.388,1111122 
DISL,ioos:station:DISL:MHPA:1,2017-12-01T01:30:00Z,30.6671,-87.9365,1.419,1111122 
DISL,ioos:station:DISL:MHPA:1,2017-12-01T02:30:00Z,30.6671,-87.9365,1.427,1111122 
DISL,ioos:station:DISL:MHPA:1,2017-12-01T03:30:00Z,30.6671,-87.9365,1.433,1111122 
DISL,ioos:station:DISL:MHPA:1,2017-12-01T04:30:00Z,30.6671,-87.9365,1.387,1111122 
DISL,ioos:station:DISL:MHPA:1,2017-12-01T05:30:00Z,30.6671,-87.9365,1.344,1111122 
DISL,ioos:station:DISL:MHPA:1,2017-12-01T06:30:00Z,30.6671,-87.9365,1.285,1111122 
DISL,ioos:station:DISL:MHPA:1,2017-12-01T07:30:00Z,30.6671,-87.9365,1.211,1111122 
DISL,ioos:station:DISL:MHPA:1,2017-12-01T08:30:00Z,30.6671,-87.9365,1.118,1111122 
DISL,ioos:station:DISL:MHPA:1,2017-12-01T09:30:00Z,30.6671,-87.9365,1.031,1111122 
DISL,ioos:station:DISL:MHPA:1,2017-12-01T10:30:00Z,30.6671,-87.9365,0.993,1111122 
DISL,ioos:station:DISL:MHPA:1,2017-12-01T11:30:00Z,30.6671,-87.9365,0.965,1111122 
DISL,ioos:station:DISL:MHPA:1,2017-12-01T12:30:00Z,30.6671,-87.9365,0.94,1111122 
DISL,ioos:station:DISL:MHPA:1,2017-12-01T13:30:00Z,30.6671,-87.9365,0.941,1111122 
DISL,ioos:station:DISL:MHPA:1,2017-12-01T14:30:00Z,30.6671,-87.9365,0.926,1111122 
DISL,ioos:station:DISL:MHPA:1,2017-12-01T15:30:00Z,30.6671,-87.9365,0.975,1111122 
DISL,ioos:station:DISL:MHPA:1,2017-12-01T16:30:00Z,30.6671,-87.9365,1.029,1111122 
DISL,ioos:station:DISL:MHPA:1,2017-12-01T17:30:00Z,30.6671,-87.9365,1.114,1111122 
DISL,ioos:station:DISL:MHPA:1,2017-12-01T18:30:00Z,30.6671,-87.9365,1.161,1111122 
DISL,ioos:station:DISL:MHPA:1,2017-12-01T19:30:00Z,30.6671,-87.9365,1.188,1111122 
DISL,ioos:station:DISL:MHPA:1,2017-12-01T20:30:00Z,30.6671,-87.9365,1.19,1111122 
DISL,ioos:station:DISL:MHPA:1,2017-12-01T21:30:00Z,30.6671,-87.9365,1.19,1111122 
DISL,ioos:station:DISL:MHPA:1,2017-12-01T22:30:00Z,30.6671,-87.9365,1.207,1111122 
DISL,ioos:station:DISL:MHPA:1,2017-12-01T23:30:00Z,30.6671,-87.9365,1.258,1111122 
DISL,ioos:station:DISL:MHPA:1,2017-12-02T00:30:00Z,30.6671,-87.9365,1.308,1111122 
DISL,ioos:station:DISL:MHPA:1,2017-12-02T01:30:00Z,30.6671,-87.9365,1.35,1111122 
DISL,ioos:station:DISL:MHPA:1,2017-12-02T02:30:00Z,30.6671,-87.9365,1.397,1111122 
DISL,ioos:station:DISL:MHPA:1,2017-12-02T03:30:00Z,30.6671,-87.9365,1.422,1111122 
DISL,ioos:station:DISL:MHPA:1,2017-12-02T04:30:00Z,30.6671,-87.9365,1.427,1111122 
DISL,ioos:station:DISL:MHPA:1,2017-12-02T05:30:00Z,30.6671,-87.9365,1.387,1111122 
DISL,ioos:station:DISL:MHPA:1,2017-12-02T06:30:00Z,30.6671,-87.9365,1.336,1111122 
DISL,ioos:station:DISL:MHPA:1,2017-12-02T07:30:00Z,30.6671,-87.9365,1.258,1111122 
DISL,ioos:station:DISL:MHPA:1,2017-12-02T08:30:00Z,30.6671,-87.9365,1.183,1111122 
DISL,ioos:station:DISL:MHPA:1,2017-12-02T09:30:00Z,30.6671,-87.9365,1.11,1111122 
DISL,ioos:station:DISL:MHPA:1,2017-12-02T10:30:00Z,30.6671,-87.9365,1.034,1111122 
DISL,ioos:station:DISL:MHPA:1,2017-12-02T11:30:00Z,30.6671,-87.9365,0.986,1111122 
DISL,ioos:station:DISL:MHPA:1,2017-12-02T12:30:00Z,30.6671,-87.9365,0.945,1111122 
DISL,ioos:station:DISL:MHPA:1,2017-12-02T13:30:00Z,30.6671,-87.9365,0.92,1111122 
DISL,ioos:station:DISL:MHPA:1,2017-12-02T14:30:00Z,30.6671,-87.9365,0.898,1111122 
DISL,ioos:station:DISL:MHPA:1,2017-12-02T15:30:00Z,30.6671,-87.9365,0.907,1111122 
DISL,ioos:station:DISL:MHPA:1,2017-12-02T16:30:00Z,30.6671,-87.9365,0.933,1111122 
DISL,ioos:station:DISL:MHPA:1,2017-12-02T17:30:00Z,30.6671,-87.9365,0.981,1111122 
DISL,ioos:station:DISL:MHPA:1,2017-12-02T18:30:00Z,30.6671,-87.9365,1.034,1111122 
DISL,ioos:station:DISL:MHPA:1,2017-12-02T19:30:00Z,30.6671,-87.9365,1.067,1111122 
DISL,ioos:station:DISL:MHPA:1,2017-12-02T20:30:00Z,30.6671,-87.9365,1.144,1111122 
DISL,ioos:station:DISL:MHPA:1,2017-12-02T21:30:00Z,30.6671,-87.9365,1.211,1111122 
DISL,ioos:station:DISL:MHPA:1,2017-12-02T22:30:00Z,30.6671,-87.9365,1.258,1111122 
DISL,ioos:station:DISL:MHPA:1,2017-12-02T23:30:00Z,30.6671,-87.9365,1.294,1111122 
DISL,ioos:station:DISL:MHPA:1,2017-12-03T00:30:00Z,30.6671,-87.9365,1.382,1111122 
DISL,ioos:station:DISL:MHPA:1,2017-12-03T01:30:00Z,30.6671,-87.9365,1.445,1111122 
DISL,ioos:station:DISL:MHPA:1,2017-12-03T02:30:00Z,30.6671,-87.9365,1.473,1111122 
DISL,ioos:station:DISL:MHPA:1,2017-12-03T03:30:00Z,30.6671,-87.9365,1.492,1111122 
DISL,ioos:station:DISL:MHPA:1,2017-12-03T04:30:00Z,30.6671,-87.9365,1.514,1111122 
DISL,ioos:station:DISL:MHPA:1,2017-12-03T05:30:00Z,30.6671,-87.9365,1.492,1111122 
DISL,ioos:station:DISL:MHPA:1,2017-12-03T06:30:00Z,30.6671,-87.9365,1.429,1111122 
DISL,ioos:station:DISL:MHPA:1,2017-12-03T07:30:00Z,30.6671,-87.9365,1.357,1111122 
DISL,ioos:station:DISL:MHPA:1,2017-12-03T08:30:00Z,30.6671,-87.9365,1.237,1111122 
DISL,ioos:station:DISL:MHPA:1,2017-12-03T09:30:00Z,30.6671,-87.9365,1.136,1111122 
DISL,ioos:station:DISL:MHPA:1,2017-12-03T10:30:00Z,30.6671,-87.9365,1.055,1111122 
DISL,ioos:station:DISL:MHPA:1,2017-12-03T11:30:00Z,30.6671,-87.9365,0.981,1111122 
DISL,ioos:station:DISL:MHPA:1,2017-12-03T12:30:00Z,30.6671,-87.9365,0.924,1111122 
DISL,ioos:station:DISL:MHPA:1,2017-12-03T13:30:00Z,30.6671,-87.9365,0.887,1111122 
DISL,ioos:station:DISL:MHPA:1,2017-12-03T14:30:00Z,30.6671,-87.9365,0.861,1111122 
DISL,ioos:station:DISL:MHPA:1,2017-12-03T15:30:00Z,30.6671,-87.9365,0.833,1111122 
DISL,ioos:station:DISL:MHPA:1,2017-12-03T16:30:00Z,30.6671,-87.9365,0.847,1111122 
DISL,ioos:station:DISL:MHPA:1,2017-12-03T17:30:00Z,30.6671,-87.9365,0.875,1111122 
DISL,ioos:station:DISL:MHPA:1,2017-12-03T18:30:00Z,30.6671,-87.9365,0.975,1111122 
DISL,ioos:station:DISL:MHPA:1,2017-12-03T19:30:00Z,30.6671,-87.9365,1.058,1111122 
DISL,ioos:station:DISL:MHPA:1,2017-12-03T20:30:00Z,30.6671,-87.9365,1.13,1111122 
DISL,ioos:station:DISL:MHPA:1,2017-12-03T21:30:00Z,30.6671,-87.9365,1.221,1111122 
DISL,ioos:station:DISL:MHPA:1,2017-12-03T22:30:00Z,30.6671,-87.9365,1.257,1111122 
DISL,ioos:station:DISL:MHPA:1,2017-12-03T23:30:00Z,30.6671,-87.9365,1.318,1111122 
DISL,ioos:station:DISL:MHPA:1,2017-12-04T00:30:00Z,30.6671,-87.9365,1.378,1111122 
DISL,ioos:station:DISL:MHPA:1,2017-12-04T01:30:00Z,30.6671,-87.9365,1.463,1111122 
DISL,ioos:station:DISL:MHPA:1,2017-12-04T02:00:00Z,30.6671,-87.9365,1.495,1111122 
DISL,ioos:station:DISL:MHPA:1,2017-12-04T03:30:00Z,30.6671,-87.9365,1.567,1111122 
DISL,ioos:station:DISL:MHPA:1,2017-12-04T04:30:00Z,30.6671,-87.9365,1.578,1111122 
DISL,ioos:station:DISL:MHPA:1,2017-12-04T05:30:00Z,30.6671,-87.9365,1.584,1111122 
DISL,ioos:station:DISL:MHPA:1,2017-12-04T06:30:00Z,30.6671,-87.9365,1.539,1111122 
DISL,ioos:station:DISL:MHPA:1,2017-12-04T07:30:00Z,30.6671,-87.9365,1.444,1111122 
DISL,ioos:station:DISL:MHPA:1,2017-12-04T08:30:00Z,30.6671,-87.9365,1.371,1111122 
DISL,ioos:station:DISL:MHPA:1,2017-12-04T09:30:00Z,30.6671,-87.9365,1.275,1111122 
DISL,ioos:station:DISL:MHPA:1,2017-12-04T10:30:00Z,30.6671,-87.9365,1.181,1111122 
DISL,ioos:station:DISL:MHPA:1,2017-12-04T11:30:00Z,30.6671,-87.9365,1.114,1111122 
DISL,ioos:station:DISL:MHPA:1,2017-12-04T12:30:00Z,30.6671,-87.9365,1.05,1111122 
DISL,ioos:station:DISL:MHPA:1,2017-12-04T13:30:00Z,30.6671,-87.9365,0.979,1111122 
DISL,ioos:station:DISL:MHPA:1,2017-12-04T14:30:00Z,30.6671,-87.9365,0.935,1111122 
DISL,ioos:station:DISL:MHPA:1,2017-12-04T15:30:00Z,30.6671,-87.9365,0.916,1111122 
DISL,ioos:station:DISL:MHPA:1,2017-12-04T16:30:00Z,30.6671,-87.9365,0.893,1111122 
DISL,ioos:station:DISL:MHPA:1,2017-12-04T17:30:00Z,30.6671,-87.9365,0.888,1111122 
DISL,ioos:station:DISL:MHPA:1,2017-12-04T18:30:00Z,30.6671,-87.9365,0.909,1111122 
DISL,ioos:station:DISL:MHPA:1,2017-12-04T19:30:00Z,30.6671,-87.9365,0.989,1111122 
DISL,ioos:station:DISL:MHPA:1,2017-12-04T20:30:00Z,30.6671,-87.9365,1.062,1111122 
DISL,ioos:station:DISL:MHPA:1,2017-12-04T21:30:00Z,30.6671,-87.9365,1.135,1111122 
DISL,ioos:station:DISL:MHPA:1,2017-12-04T22:30:00Z,30.6671,-87.9365,1.189,1111122 
DISL,ioos:station:DISL:MHPA:1,2017-12-04T23:30:00Z,30.6671,-87.9365,1.242,1111122 
DISL,ioos:station:DISL:MHPA:1,2017-12-05T00:30:00Z,30.6671,-87.9365,1.349,1111122 
DISL,ioos:station:DISL:MHPA:1,2017-12-05T01:30:00Z,30.6671,-87.9365,1.41,1111122 
DISL,ioos:station:DISL:MHPA:1,2017-12-05T02:30:00Z,30.6671,-87.9365,1.508,1111122 
DISL,ioos:station:DISL:MHPA:1,2017-12-05T03:30:00Z,30.6671,-87.9365,1.587,1111122 
DISL,ioos:station:DISL:MHPA:1,2017-12-05T04:30:00Z,30.6671,-87.9365,1.654,1111122 
DISL,ioos:station:DISL:MHPA:1,2017-12-05T05:30:00Z,30.6671,-87.9365,1.675,1111122 
DISL,ioos:station:DISL:MHPA:1,2017-12-05T06:30:00Z,30.6671,-87.9365,1.675,1111122 
DISL,ioos:station:DISL:MHPA:1,2017-12-05T07:30:00Z,30.6671,-87.9365,1.649,1111122 
DISL,ioos:station:DISL:MHPA:1,2017-12-05T08:30:00Z,30.6671,-87.9365,1.578,1111122 
DISL,ioos:station:DISL:MHPA:1,2017-12-05T09:30:00Z,30.6671,-87.9365,1.475,1111122 
DISL,ioos:station:DISL:MHPA:1,2017-12-05T10:30:00Z,30.6671,-87.9365,1.38,1111122 
DISL,ioos:station:DISL:MHPA:1,2017-12-05T11:30:00Z,30.6671,-87.9365,1.292,1111122 
DISL,ioos:station:DISL:MHPA:1,2017-12-05T12:30:00Z,30.6671,-87.9365,1.21,1111122 
DISL,ioos:station:DISL:MHPA:1,2017-12-05T13:30:00Z,30.6671,-87.9365,1.136,1111122 
DISL,ioos:station:DISL:MHPA:1,2017-12-05T14:30:00Z,30.6671,-87.9365,1.082,1111122 
DISL,ioos:station:DISL:MHPA:1,2017-12-05T15:30:00Z,30.6671,-87.9365,1.038,1111122 
DISL,ioos:station:DISL:MHPA:1,2017-12-05T16:30:00Z,30.6671,-87.9365,0.99,1111122 
DISL,ioos:station:DISL:MHPA:1,2017-12-05T17:30:00Z,30.6671,-87.9365,0.965,1111122 
DISL,ioos:station:DISL:MHPA:1,2017-12-05T18:30:00Z,30.6671,-87.9365,0.925,1111122 
DISL,ioos:station:DISL:MHPA:1,2017-12-05T19:30:00Z,30.6671,-87.9365,0.919,1111122 
DISL,ioos:station:DISL:MHPA:1,2017-12-05T20:30:00Z,30.6671,-87.9365,0.943,1111122 
DISL,ioos:station:DISL:MHPA:1,2017-12-05T21:30:00Z,30.6671,-87.9365,1.037,1111122 
DISL,ioos:station:DISL:MHPA:1,2017-12-05T22:30:00Z,30.6671,-87.9365,1.095,1111122 
DISL,ioos:station:DISL:MHPA:1,2017-12-05T23:30:00Z,30.6671,-87.9365,1.172,1111122 
DISL,ioos:station:DISL:MHPA:1,2017-12-06T00:30:00Z,30.6671,-87.9365,1.238,1111122 
DISL,ioos:station:DISL:MHPA:1,2017-12-06T01:30:00Z,30.6671,-87.9365,1.292,1111122 
DISL,ioos:station:DISL:MHPA:1,2017-12-06T02:30:00Z,30.6671,-87.9365,1.344,1111122 
DISL,ioos:station:DISL:MHPA:1,2017-12-06T03:30:00Z,30.6671,-87.9365,1.366,1111122 
DISL,ioos:station:DISL:MHPA:1,2017-12-06T04:30:00Z,30.6671,-87.9365,1.419,1111122 
DISL,ioos:station:DISL:MHPA:1,2017-12-06T05:30:00Z,30.6671,-87.9365,1.392,1111122 
DISL,ioos:station:DISL:MHPA:1,2017-12-06T06:30:00Z,30.6671,-87.9365,1.316,1111122 
DISL,ioos:station:DISL:MHPA:1,2017-12-06T07:30:00Z,30.6671,-87.9365,1.303,1111122 
DISL,ioos:station:DISL:MHPA:1,2017-12-06T08:30:00Z,30.6671,-87.9365,1.29,1111122 
DISL,ioos:station:DISL:MHPA:1,2017-12-06T09:30:00Z,30.6671,-87.9365,1.2,1111122 
DISL,ioos:station:DISL:MHPA:1,2017-12-06T10:30:00Z,30.6671,-87.9365,1.13,1111122 
DISL,ioos:station:DISL:MHPA:1,2017-12-06T11:30:00Z,30.6671,-87.9365,1.059,1111122 
DISL,ioos:station:DISL:MHPA:1,2017-12-06T12:30:00Z,30.6671,-87.9365,0.997,1111122 
DISL,ioos:station:DISL:MHPA:1,2017-12-06T13:30:00Z,30.6671,-87.9365,0.969,1111122 
DISL,ioos:station:DISL:MHPA:1,2017-12-06T14:30:00Z,30.6671,-87.9365,0.907,1111122 
DISL,ioos:station:DISL:MHPA:1,2017-12-06T15:30:00Z,30.6671,-87.9365,0.83,1111122 
DISL,ioos:station:DISL:MHPA:1,2017-12-06T16:30:00Z,30.6671,-87.9365,0.75,1111122 
DISL,ioos:station:DISL:MHPA:1,2017-12-06T17:30:00Z,30.6671,-87.9365,0.699,1111122 
DISL,ioos:station:DISL:MHPA:1,2017-12-06T18:30:00Z,30.6671,-87.9365,0.687,1111122 
DISL,ioos:station:DISL:MHPA:1,2017-12-06T19:30:00Z,30.6671,-87.9365,0.654,1111122 
DISL,ioos:station:DISL:MHPA:1,2017-12-06T20:30:00Z,30.6671,-87.9365,0.645,1111122 
DISL,ioos:station:DISL:MHPA:1,2017-12-06T21:30:00Z,30.6671,-87.9365,0.662,1111122 
DISL,ioos:station:DISL:MHPA:1,2017-12-06T22:30:00Z,30.6671,-87.9365,0.699,1111122 
DISL,ioos:station:DISL:MHPA:1,2017-12-06T23:30:00Z,30.6671,-87.9365,0.833,1111122 
DISL,ioos:station:DISL:MHPA:1,2017-12-07T00:30:00Z,30.6671,-87.9365,0.933,1111122 
DISL,ioos:station:DISL:MHPA:1,2017-12-07T01:30:00Z,30.6671,-87.9365,0.98,1111122 
DISL,ioos:station:DISL:MHPA:1,2017-12-07T02:30:00Z,30.6671,-87.9365,1.065,1111122 
DISL,ioos:station:DISL:MHPA:1,2017-12-07T03:30:00Z,30.6671,-87.9365,1.155,1111122 
DISL,ioos:station:DISL:MHPA:1,2017-12-07T04:30:00Z,30.6671,-87.9365,1.187,1111122 
DISL,ioos:station:DISL:MHPA:1,2017-12-07T05:30:00Z,30.6671,-87.9365,1.354,1111122 
DISL,ioos:station:DISL:MHPA:1,2017-12-07T06:30:00Z,30.6671,-87.9365,1.427,1111122 
DISL,ioos:station:DISL:MHPA:1,2017-12-07T07:30:00Z,30.6671,-87.9365,1.465,1111122 
DISL,ioos:station:DISL:MHPA:1,2017-12-07T08:30:00Z,30.6671,-87.9365,1.458,1111122 
DISL,ioos:station:DISL:MHPA:1,2017-12-07T09:30:00Z,30.6671,-87.9365,1.461,1111122 
DISL,ioos:station:DISL:MHPA:1,2017-12-07T10:30:00Z,30.6671,-87.9365,1.372,1111122 
DISL,ioos:station:DISL:MHPA:1,2017-12-07T11:30:00Z,30.6671,-87.9365,1.327,1111122 
DISL,ioos:station:DISL:MHPA:1,2017-12-07T12:30:00Z,30.6671,-87.9365,1.256,1111122 
DISL,ioos:station:DISL:MHPA:1,2017-12-07T13:30:00Z,30.6671,-87.9365,1.169,1111122 
DISL,ioos:station:DISL:MHPA:1,2017-12-07T14:30:00Z,30.6671,-87.9365,1.117,1111122 
DISL,ioos:station:DISL:MHPA:1,2017-12-07T15:30:00Z,30.6671,-87.9365,1.065,1111122 
DISL,ioos:station:DISL:MHPA:1,2017-12-07T16:30:00Z,30.6671,-87.9365,1.017,1111122 
DISL,ioos:station:DISL:MHPA:1,2017-12-07T17:30:00Z,30.6671,-87.9365,0.96,1111122 
DISL,ioos:station:DISL:MHPA:1,2017-12-07T18:30:00Z,30.6671,-87.9365,0.911,1111122 
DISL,ioos:station:DISL:MHPA:1,2017-12-07T19:30:00Z,30.6671,-87.9365,0.879,1111122 
DISL,ioos:station:DISL:MHPA:1,2017-12-07T20:00:00Z,30.6671,-87.9365,0.863,1111122 
DISL,ioos:station:DISL:MHPA:1,2017-12-07T22:30:00Z,30.6671,-87.9365,0.856,1111122 
DISL,ioos:station:DISL:MHPA:1,2017-12-07T23:30:00Z,30.6671,-87.9365,0.834,1111122 
DISL,ioos:station:DISL:MHPA:1,2017-12-08T00:30:00Z,30.6671,-87.9365,0.908,1111122 
DISL,ioos:station:DISL:MHPA:1,2017-12-08T01:30:00Z,30.6671,-87.9365,1.024,1111122 
DISL,ioos:station:DISL:MHPA:1,2017-12-08T02:30:00Z,30.6671,-87.9365,1.065,1111122 
DISL,ioos:station:DISL:MHPA:1,2017-12-08T03:30:00Z,30.6671,-87.9365,1.113,1111122 
DISL,ioos:station:DISL:MHPA:1,2017-12-08T04:30:00Z,30.6671,-87.9365,1.22,1111122 
DISL,ioos:station:DISL:MHPA:1,2017-12-08T05:30:00Z,30.6671,-87.9365,1.361,1111122 
DISL,ioos:station:DISL:MHPA:1,2017-12-08T06:30:00Z,30.6671,-87.9365,1.46,1111122 
DISL,ioos:station:DISL:MHPA:1,2017-12-08T07:30:00Z,30.6671,-87.9365,1.419,1111122 
DISL,ioos:station:DISL:MHPA:1,2017-12-08T08:30:00Z,30.6671,-87.9365,1.382,1111122 
DISL,ioos:station:DISL:MHPA:1,2017-12-08T09:30:00Z,30.6671,-87.9365,1.367,1111122 
DISL,ioos:station:DISL:MHPA:1,2017-12-08T10:30:00Z,30.6671,-87.9365,1.346,1111122 
DISL,ioos:station:DISL:MHPA:1,2017-12-08T11:30:00Z,30.6671,-87.9365,1.335,1111122 
DISL,ioos:station:DISL:MHPA:1,2017-12-08T12:30:00Z,30.6671,-87.9365,1.267,1111122 
DISL,ioos:station:DISL:MHPA:1,2017-12-08T13:30:00Z,30.6671,-87.9365,1.19,1111122 
DISL,ioos:station:DISL:MHPA:1,2017-12-08T14:30:00Z,30.6671,-87.9365,1.114,1111122 
DISL,ioos:station:DISL:MHPA:1,2017-12-08T15:30:00Z,30.6671,-87.9365,1.062,1111122 
DISL,ioos:station:DISL:MHPA:1,2017-12-08T16:30:00Z,30.6671,-87.9365,1.006,1111122 
DISL,ioos:station:DISL:MHPA:1,2017-12-08T17:30:00Z,30.6671,-87.9365,0.948,1111122 
DISL,ioos:station:DISL:MHPA:1,2017-12-08T18:30:00Z,30.6671,-87.9365,0.925,1111122 
DISL,ioos:station:DISL:MHPA:1,2017-12-08T19:30:00Z,30.6671,-87.9365,0.881,1111122 
DISL,ioos:station:DISL:MHPA:1,2017-12-08T20:30:00Z,30.6671,-87.9365,0.86,1111122 
DISL,ioos:station:DISL:MHPA:1,2017-12-08T21:30:00Z,30.6671,-87.9365,0.861,1111122 
DISL,ioos:station:DISL:MHPA:1,2017-12-08T22:30:00Z,30.6671,-87.9365,0.938,1111122 
DISL,ioos:station:DISL:MHPA:1,2017-12-08T23:30:00Z,30.6671,-87.9365,1.005,1111122 
DISL,ioos:station:DISL:MHPA:1,2017-12-09T00:30:00Z,30.6671,-87.9365,1.034,1111122 
DISL,ioos:station:DISL:MHPA:1,2017-12-09T01:30:00Z,30.6671,-87.9365,1.176,1111122 
DISL,ioos:station:DISL:MHPA:1,2017-12-09T02:30:00Z,30.6671,-87.9365,1.273,1111122 
DISL,ioos:station:DISL:MHPA:1,2017-12-09T03:30:00Z,30.6671,-87.9365,1.316,1111122 
DISL,ioos:station:DISL:MHPA:1,2017-12-09T04:30:00Z,30.6671,-87.9365,1.452,1111122 
DISL,ioos:station:DISL:MHPA:1,2017-12-09T05:30:00Z,30.6671,-87.9365,1.519,1111122 
DISL,ioos:station:DISL:MHPA:1,2017-12-09T06:30:00Z,30.6671,-87.9365,1.587,1111122 
DISL,ioos:station:DISL:MHPA:1,2017-12-09T07:30:00Z,30.6671,-87.9365,1.629,1111122 
DISL,ioos:station:DISL:MHPA:1,2017-12-09T08:30:00Z,30.6671,-87.9365,1.693,1111122 
DISL,ioos:station:DISL:MHPA:1,2017-12-09T09:30:00Z,30.6671,-87.9365,1.71,1111122 
DISL,ioos:station:DISL:MHPA:1,2017-12-09T10:30:00Z,30.6671,-87.9365,1.686,1111122 
DISL,ioos:station:DISL:MHPA:1,2017-12-09T11:30:00Z,30.6671,-87.9365,1.669,1111122 
DISL,ioos:station:DISL:MHPA:1,2017-12-09T12:30:00Z,30.6671,-87.9365,1.641,1111122 
DISL,ioos:station:DISL:MHPA:1,2017-12-09T13:30:00Z,30.6671,-87.9365,1.578,1111122 
DISL,ioos:station:DISL:MHPA:1,2017-12-09T14:30:00Z,30.6671,-87.9365,1.511,1111122 
DISL,ioos:station:DISL:MHPA:1,2017-12-09T15:30:00Z,30.6671,-87.9365,1.45,1111122 
DISL,ioos:station:DISL:MHPA:1,2017-12-09T16:30:00Z,30.6671,-87.9365,1.379,1111122 
DISL,ioos:station:DISL:MHPA:1,2017-12-09T17:30:00Z,30.6671,-87.9365,1.328,1111122 
DISL,ioos:station:DISL:MHPA:1,2017-12-09T18:30:00Z,30.6671,-87.9365,1.233,1111122 
DISL,ioos:station:DISL:MHPA:1,2017-12-09T19:30:00Z,30.6671,-87.9365,1.181,1111122 
DISL,ioos:station:DISL:MHPA:1,2017-12-09T20:30:00Z,30.6671,-87.9365,1.191,1111122 
DISL,ioos:station:DISL:MHPA:1,2017-12-09T21:30:00Z,30.6671,-87.9365,1.193,1111122 
DISL,ioos:station:DISL:MHPA:1,2017-12-09T22:30:00Z,30.6671,-87.9365,1.215,1111122 
DISL,ioos:station:DISL:MHPA:1,2017-12-09T23:30:00Z,30.6671,-87.9365,1.257,1111122 
DISL,ioos:station:DISL:MHPA:1,2017-12-10T00:30:00Z,30.6671,-87.9365,1.293,1111122 
DISL,ioos:station:DISL:MHPA:1,2017-12-10T01:30:00Z,30.6671,-87.9365,1.385,1111122 
DISL,ioos:station:DISL:MHPA:1,2017-12-10T02:30:00Z,30.6671,-87.9365,1.45,1111122 
DISL,ioos:station:DISL:MHPA:1,2017-12-10T03:30:00Z,30.6671,-87.9365,1.493,1111122 
DISL,ioos:station:DISL:MHPA:1,2017-12-10T04:30:00Z,30.6671,-87.9365,1.53,1111122 
DISL,ioos:station:DISL:MHPA:1,2017-12-10T05:30:00Z,30.6671,-87.9365,1.511,1111122 
DISL,ioos:station:DISL:MHPA:1,2017-12-10T06:30:00Z,30.6671,-87.9365,1.525,1111122 
DISL,ioos:station:DISL:MHPA:1,2017-12-10T07:30:00Z,30.6671,-87.9365,1.5,1111122 
DISL,ioos:station:DISL:MHPA:1,2017-12-10T08:30:00Z,30.6671,-87.9365,1.483,1111122 
DISL,ioos:station:DISL:MHPA:1,2017-12-10T09:30:00Z,30.6671,-87.9365,1.476,1111122 
DISL,ioos:station:DISL:MHPA:1,2017-12-10T10:30:00Z,30.6671,-87.9365,1.481,1111122 
DISL,ioos:station:DISL:MHPA:1,2017-12-10T11:30:00Z,30.6671,-87.9365,1.438,1111122 
DISL,ioos:station:DISL:MHPA:1,2017-12-10T12:30:00Z,30.6671,-87.9365,1.385,1111122 
DISL,ioos:station:DISL:MHPA:1,2017-12-10T13:30:00Z,30.6671,-87.9365,1.375,1111122 
DISL,ioos:station:DISL:MHPA:1,2017-12-10T14:30:00Z,30.6671,-87.9365,1.378,1111122 
DISL,ioos:station:DISL:MHPA:1,2017-12-10T15:30:00Z,30.6671,-87.9365,1.365,1111122 
DISL,ioos:station:DISL:MHPA:1,2017-12-10T16:30:00Z,30.6671,-87.9365,1.341,1111122 
DISL,ioos:station:DISL:MHPA:1,2017-12-10T17:30:00Z,30.6671,-87.9365,1.289,1111122 
DISL,ioos:station:DISL:MHPA:1,2017-12-10T18:30:00Z,30.6671,-87.9365,1.258,1111122 
DISL,ioos:station:DISL:MHPA:1,2017-12-10T19:30:00Z,30.6671,-87.9365,1.231,1111122 
DISL,ioos:station:DISL:MHPA:1,2017-12-10T20:30:00Z,30.6671,-87.9365,1.245,1111122 
DISL,ioos:station:DISL:MHPA:1,2017-12-10T21:30:00Z,30.6671,-87.9365,1.298,1111122 
DISL,ioos:station:DISL:MHPA:1,2017-12-10T22:30:00Z,30.6671,-87.9365,1.324,1111122 
DISL,ioos:station:DISL:MHPA:1,2017-12-10T23:30:00Z,30.6671,-87.9365,1.381,1111122 
DISL,ioos:station:DISL:MHPA:1,2017-12-11T00:30:00Z,30.6671,-87.9365,1.427,1111122 
DISL,ioos:station:DISL:MHPA:1,2017-12-11T01:30:00Z,30.6671,-87.9365,1.461,1111122 
DISL,ioos:station:DISL:MHPA:1,2017-12-11T02:30:00Z,30.6671,-87.9365,1.48,1111122 
DISL,ioos:station:DISL:MHPA:1,2017-12-11T03:30:00Z,30.6671,-87.9365,1.53,1111122 
DISL,ioos:station:DISL:MHPA:1,2017-12-11T04:30:00Z,30.6671,-87.9365,1.519,1111122 
DISL,ioos:station:DISL:MHPA:1,2017-12-11T05:30:00Z,30.6671,-87.9365,1.503,1111122 
DISL,ioos:station:DISL:MHPA:1,2017-12-11T06:30:00Z,30.6671,-87.9365,1.472,1111122 
DISL,ioos:station:DISL:MHPA:1,2017-12-11T07:30:00Z,30.6671,-87.9365,1.431,1111122 
DISL,ioos:station:DISL:MHPA:1,2017-12-11T08:30:00Z,30.6671,-87.9365,1.396,1111122 
DISL,ioos:station:DISL:MHPA:1,2017-12-11T09:30:00Z,30.6671,-87.9365,1.351,1111122 
DISL,ioos:station:DISL:MHPA:1,2017-12-11T10:30:00Z,30.6671,-87.9365,1.33,1111122 
DISL,ioos:station:DISL:MHPA:1,2017-12-11T11:30:00Z,30.6671,-87.9365,1.292,1111122 
DISL,ioos:station:DISL:MHPA:1,2017-12-11T12:30:00Z,30.6671,-87.9365,1.288,1111122 
DISL,ioos:station:DISL:MHPA:1,2017-12-11T13:30:00Z,30.6671,-87.9365,1.312,1111122 
DISL,ioos:station:DISL:MHPA:1,2017-12-11T14:30:00Z,30.6671,-87.9365,1.308,1111122 
DISL,ioos:station:DISL:MHPA:1,2017-12-11T15:30:00Z,30.6671,-87.9365,1.33,1111122 
DISL,ioos:station:DISL:MHPA:1,2017-12-11T16:30:00Z,30.6671,-87.9365,1.304,1111122 
DISL,ioos:station:DISL:MHPA:1,2017-12-11T17:30:00Z,30.6671,-87.9365,1.32,1111122 
DISL,ioos:station:DISL:MHPA:1,2017-12-11T18:30:00Z,30.6671,-87.9365,1.328,1111122 
DISL,ioos:station:DISL:MHPA:1,2017-12-11T19:30:00Z,30.6671,-87.9365,1.31,1111122 
DISL,ioos:station:DISL:MHPA:1,2017-12-11T20:30:00Z,30.6671,-87.9365,1.301,1111122 
DISL,ioos:station:DISL:MHPA:1,2017-12-11T21:30:00Z,30.6671,-87.9365,1.349,1111122 
DISL,ioos:station:DISL:MHPA:1,2017-12-11T22:30:00Z,30.6671,-87.9365,0.97,1111122 
DISL,ioos:station:DISL:MHPA:1,2017-12-11T23:30:00Z,30.6671,-87.9365,0.999,1111122 
DISL,ioos:station:DISL:MHPA:1,2017-12-12T00:30:00Z,30.6671,-87.9365,1.018,1111122 
DISL,ioos:station:DISL:MHPA:1,2017-12-12T01:30:00Z,30.6671,-87.9365,1.04,1111122 
DISL,ioos:station:DISL:MHPA:1,2017-12-12T02:30:00Z,30.6671,-87.9365,1.089,1111122 
DISL,ioos:station:DISL:MHPA:1,2017-12-12T03:30:00Z,30.6671,-87.9365,1.116,1111122 
DISL,ioos:station:DISL:MHPA:1,2017-12-12T04:30:00Z,30.6671,-87.9365,1.161,1111122 
DISL,ioos:station:DISL:MHPA:1,2017-12-12T05:30:00Z,30.6671,-87.9365,1.136,1111122 
DISL,ioos:station:DISL:MHPA:1,2017-12-12T06:30:00Z,30.6671,-87.9365,1.115,1111122 
DISL,ioos:station:DISL:MHPA:1,2017-12-12T07:30:00Z,30.6671,-87.9365,1.076,1111122 
DISL,ioos:station:DISL:MHPA:1,2017-12-12T08:30:00Z,30.6671,-87.9365,1.037,1111122 
DISL,ioos:station:DISL:MHPA:1,2017-12-12T09:30:00Z,30.6671,-87.9365,1.022,1111122 
DISL,ioos:station:DISL:MHPA:1,2017-12-12T10:30:00Z,30.6671,-87.9365,1.009,1111122 
DISL,ioos:station:DISL:MHPA:1,2017-12-12T11:30:00Z,30.6671,-87.9365,0.966,1111122 
DISL,ioos:station:DISL:MHPA:1,2017-12-12T12:30:00Z,30.6671,-87.9365,0.958,1111122 
DISL,ioos:station:DISL:MHPA:1,2017-12-12T13:30:00Z,30.6671,-87.9365,0.913,1111122 
DISL,ioos:station:DISL:MHPA:1,2017-12-12T14:30:00Z,30.6671,-87.9365,0.875,1111122 
DISL,ioos:station:DISL:MHPA:1,2017-12-12T15:30:00Z,30.6671,-87.9365,0.798,1111122 
DISL,ioos:station:DISL:MHPA:1,2017-12-12T16:30:00Z,30.6671,-87.9365,0.715,1111122 
DISL,ioos:station:DISL:MHPA:1,2017-12-12T17:30:00Z,30.6671,-87.9365,0.656,1111122 
DISL,ioos:station:DISL:MHPA:1,2017-12-12T18:30:00Z,30.6671,-87.9365,0.629,1111122 
DISL,ioos:station:DISL:MHPA:1,2017-12-12T19:30:00Z,30.6671,-87.9365,0.609,1111122 
DISL,ioos:station:DISL:MHPA:1,2017-12-12T20:30:00Z,30.6671,-87.9365,0.64,1111122 
DISL,ioos:station:DISL:MHPA:1,2017-12-12T21:30:00Z,30.6671,-87.9365,0.677,1111122 
DISL,ioos:station:DISL:MHPA:1,2017-12-12T22:30:00Z,30.6671,-87.9365,0.78,1111122 
DISL,ioos:station:DISL:MHPA:1,2017-12-13T09:30:00Z,30.6671,-87.9365,0.68,1111122 
DISL,ioos:station:DISL:MHPA:1,2017-12-13T10:30:00Z,30.6671,-87.9365,0.626,1111122 